Stations météo

réclame
Mon MeteoGroup
La Rochelle/Ile de Re, France (7316): Température de l'air & dewpoint: 17.02.2018 07:00:00 - 23.02.2018 07:00:00 (CET)La Rochelle/Ile de Re, France (7316): Vitesse du vent & gusts: 17.02.2018 07:00:00 - 23.02.2018 07:00:00 (CET)La Rochelle/Ile de Re, France (7316): Direction du vent: 17.02.2018 07:00:00 - 23.02.2018 07:00:00 (CET)La Rochelle/Ile de Re, France (7316): reduced air pressure: 17.02.2018 07:00:00 - 23.02.2018 07:00:00 (CET)La Rochelle/Ile de Re, France (7316): visibility: 17.02.2018 07:00:00 - 23.02.2018 07:00:00 (CET)La Rochelle/Ile de Re, France (7316): Ensoleillement: 17.02.2018 07:00:00 - 23.02.2018 07:00:00 (CET)La Rochelle/Ile de Re, France (7316): Quantités de précipitations: 17.02.2018 07:00:00 - 23.02.2018 07:00:00 (CET)
Date & Time tt [°C] td [°C] ff [km/h] ff [knt] fx [km/h] fx [knt] dd ppp [hPa] vv [km] sd [min] rr [mm]
23.02.2018 07:00:00 -2,0 -4,3 14 8 21 12 NNE 1013,8 10 0 0,0
23.02.2018 06:00:00 -1,9 -4,1 13 7 18 10 NNE 1013,8 9 0 0,0
23.02.2018 05:00:00 -1,6 -3,6 13 7 18 10 NNE 1014,0 8 0 0,0
23.02.2018 04:00:00 -1,3 -3,7 13 7 19 10 NNE 1014,3 8 0 0,0
23.02.2018 03:00:00 -1,2 -3,7 11 6 21 12 NNE 1014,5 8 0 0,0
23.02.2018 02:00:00 -0,5 -3,2 14 8 21 12 NNE 1014,7 7 0 0,0
23.02.2018 01:00:00 0,0 -2,9 14 8 22 12 NNE 1015,1 7 0 0,0
23.02.2018 00:00:00 0,3 -3,1 16 9 22 12 NNE 1015,6 7 0 0,0
22.02.2018 23:00:00 0,8 -3,3 15 8 27 14 NNE 1015,8 8 0 0,0
22.02.2018 22:00:00 1,4 -3,3 16 9 24 13 NNE 1015,8 9 0 0,0
22.02.2018 21:00:00 2,5 -3,4 17 9 27 14 NE 1015,7 10 0 0,0
22.02.2018 20:00:00 3,0 -2,7 18 10 26 14 NNE 1015,3 9 0 0,0
22.02.2018 19:00:00 4,1 -3,0 16 8 32 18 NNE 1014,8 11 17 0,0
22.02.2018 18:00:00 5,8 -3,1 21 12 37 20 NNE 1014,5 12 60 0,0
22.02.2018 17:00:00 7,1 -2,4 24 13 38 20 NNE 1014,3 10 60 0,0
22.02.2018 16:00:00 7,3 -3,0 24 13 39 21 NNE 1014,7 9 60 0,0
22.02.2018 15:00:00 7,5 -2,5 22 12 36 19 NNE 1015,3 8 60 0,0
22.02.2018 14:00:00 7,1 -2,6 23 13 34 18 NNE 1015,8 7 60 0,0
22.02.2018 13:00:00 6,1 -1,3 20 11 31 17 NNE 1016,4 7 60 0,0
22.02.2018 12:00:00 4,4 -0,4 18 10 30 16 NNE 1017,0 6 60 0,0
22.02.2018 11:00:00 2,6 -1,0 21 11 33 18 NNE 1017,3 4,6 60 0,2
22.02.2018 10:00:00 1,3 -1,3 23 13 33 18 NNE 1017,4 3,4 60 0,0
22.02.2018 09:00:00 0,5 -1,4 20 11 30 16 NNE 1017,5 3,2 41 0,0
22.02.2018 08:00:00 -0,1 -1,8 18 10 28 15 NNE 1017,4 3,2 0 0,0
22.02.2018 07:00:00 -0,2 -1,8 18 10 26 14 NNE 1017,4 3,1 0 0,0
22.02.2018 06:00:00 -0,3 -1,9 17 9 23 13 NNE 1017,4 3,1 0 0,0
22.02.2018 05:00:00 -0,3 -1,9 15 8 23 12 NNE 1017,4 3,0 0 0,0
22.02.2018 04:00:00 0,2 -1,6 14 8 20 11 N 1017,8 3,4 0 0,0
22.02.2018 03:00:00 0,0 -1,8 12 6 18 10 N 1018,5 3,5 0 0,0
22.02.2018 02:00:00 0,5 -1,6 14 8 20 11 NNE 1019,0 3,9 0 0,0
22.02.2018 01:00:00 0,8 -1,6 14 8 19 10 NNE 1019,0 4,5 0 0,0
22.02.2018 00:00:00 1,2 -1,7 13 7 20 11 NNE 1019,3 5 0 0,0
21.02.2018 23:00:00 1,5 -1,7 10 5 20 11 NNE 1019,8 7 0 0,0
21.02.2018 22:00:00 1,9 -1,5 9 5 19 11 NNE 1019,8 7 0 0,0
21.02.2018 21:00:00 3,0 -1,0 15 8 27 14 NNE 1019,4 7 0 0,0
21.02.2018 20:00:00 4,0 -1,0 17 9 31 17 NNE 1018,8 9 0 0,0
21.02.2018 19:00:00 5,0 -1,0 22 12 39 21 NE 1018,6 9 16 0,0
21.02.2018 18:00:00 6,5 -1,2 26 14 46 25 NNE 1018,8 11 60 0,0
21.02.2018 17:00:00 7,5 -1,2 27 15 45 24 NNE 1018,5 11 60 0,0
21.02.2018 16:00:00 7,9 -0,8 29 16 46 25 NNE 1019,0 10 60 0,0
21.02.2018 15:00:00 8,1 -0,7 24 13 39 21 NNE 1019,4 10 54 0,0
21.02.2018 14:00:00 7,6 0,8 24 13 42 23 NNE 1020,2 7 51 0,0
21.02.2018 13:00:00 6,4 0,9 26 14 38 21 NNE 1020,9 8 48 0,0
21.02.2018 12:00:00 5,9 1,2 22 12 36 19 NE 1021,3 8 40 0,0
21.02.2018 11:00:00 4,9 1,2 16 9 34 18 NNE 1021,6 8 16 0,0
21.02.2018 10:00:00 4,8 1,8 20 11 29 16 NNE 1021,5 9 29 0,0
21.02.2018 09:00:00 3,8 1,8 17 9 23 12 NNE 1021,2 9 5 0,0
21.02.2018 08:00:00 3,6 1,1 16 9 32 17 NNE 1020,6 10 0 0,0
21.02.2018 07:00:00 4,3 1,5 18 10 29 16 NE 1020,2 12 0 0,0
21.02.2018 06:00:00 6,0 3,5 19 10 36 19 NNE 1019,7 20 0 0,0
21.02.2018 05:00:00 6,2 3,7 20 11 35 19 N 1019,3 31 0 0,0
21.02.2018 04:00:00 6,4 3,4 25 14 40 22 N 1019,5 38 0 0,0
21.02.2018 03:00:00 6,1 3,1 27 15 44 24 N 1019,7 41 0 0,0
21.02.2018 02:00:00 5,9 2,9 28 15 45 25 N 1019,9 47 0 0,0
21.02.2018 01:00:00 6,4 3,0 28 15 46 25 N 1019,8 49 0 0,0
21.02.2018 00:00:00 6,8 3,8 26 14 40 22 N 1019,6 43 0 0,0
20.02.2018 23:00:00 7,7 4,6 27 15 45 24 N 1019,7 39 0 0,0
20.02.2018 22:00:00 8,5 4,9 31 17 52 28 N 1019,9 48 0 0,0
20.02.2018 21:00:00 8,8 5,5 32 17 49 27 N 1019,6 57 0 0,0
20.02.2018 20:00:00 9,7 6,4 32 18 44 24 NNW 1019,2 60 0 0,0
20.02.2018 19:00:00 10,4 7,5 27 15 49 27 N 1019,1 60 0 0,0
20.02.2018 18:00:00 11,5 7,6 16 9 36 20 N 1018,7 59 16 0,0
20.02.2018 17:00:00 12,2 7,7 27 15 48 26 N 1018,9 47 29 0,0
20.02.2018 16:00:00 12,9 8,2 25 13 40 22 N 1019,0 60 34 0,0
20.02.2018 15:00:00 13,0 8,3 26 14 41 22 N 1019,3 20 13 0,0
20.02.2018 14:00:00 12,1 8,0 29 15 43 23 N 1019,6 56 0 0,0
20.02.2018 13:00:00 12,4 7,9 26 14 40 22 N 1019,5 42 17 0,0
20.02.2018 12:00:00 11,6 8,1 27 15 37 20 N 1019,6 38 0 0,0
20.02.2018 11:00:00 10,9 8,6 24 13 34 19 NNW 1019,3 20 10 0,0
20.02.2018 10:00:00 10,2 8,5 23 12 30 16 NNW 1018,7 20 1 0,0
20.02.2018 09:00:00 9,6 8,0 19 10 34 19 N 1019,0 20 0 0,0
20.02.2018 08:00:00 9,5 8,1 25 14 35 19 NNW 1018,4 33 0 0,0
20.02.2018 07:00:00 9,3 8,1 18 10 27 15 N 1018,2 20 0 0,0
20.02.2018 06:00:00 9,4 8,0 19 10 28 15 NNW 1018,0 16 0 0,0
20.02.2018 05:00:00 9,5 8,1 21 12 29 16 NNW 1018,0 17 0 0,0
20.02.2018 04:00:00 9,6 8,2 21 11 29 16 NNW 1018,2 18 0 0,0
20.02.2018 03:00:00 9,6 8,5 19 10 29 16 NW 1018,3 18 0 0,2
20.02.2018 02:00:00 9,8 8,7 20 11 29 16 NW 1018,4 16 0 0,0
20.02.2018 01:00:00 10,0 9,5 19 10 29 16 NNW 1018,4 17 0 0,0
20.02.2018 00:00:00 9,8 9,3 16 9 21 11 NW 1018,5 6 0 0,0
19.02.2018 23:00:00 9,6 9,1 14 8 19 10 NW 1018,6 6 0 0,0
19.02.2018 22:00:00 9,6 9,1 14 8 19 11 NW 1018,6 4,5 0 0,0
19.02.2018 21:00:00 9,9 9,4 15 8 21 11 NW 1018,7 6 0 0,0
19.02.2018 20:00:00 9,8 9,3 15 8 19 11 WNW 1018,7 7 0 0,2
19.02.2018 19:00:00 9,7 9,2 11 6 16 8 WNW 1018,7 7 0 0,0
19.02.2018 18:00:00 9,5 9,0 8 5 14 8 WNW 1018,8 5 0 0,0
19.02.2018 17:00:00 9,5 8,9 7 4 11 6 WNW 1018,8 8 0 0,0
19.02.2018 16:00:00 9,3 8,5 6 4 10 6 NW 1018,9 8 0 0,0
19.02.2018 15:00:00 9,3 8,5 4 2 7 4 WSW 1019,1 10 0 0,0
19.02.2018 14:00:00 8,7 7,9 5 3 9 5 SW 1019,5 13 0 0,0
19.02.2018 13:00:00 8,4 7,8 5 3 9 5 S 1019,9 9 0 0,0
19.02.2018 12:00:00 8,2 7,8 4 2 8 4 SSW 1020,0 7 0 0,0
19.02.2018 11:00:00 7,5 7,1 3 2 7 4 SSW 1020,0 1,9 0 0,2
19.02.2018 10:00:00 7,1 6,7 5 3 8 4 ESE 1020,1 2,2 0 0,0
19.02.2018 09:00:00 7,1 6,7 5 3 7 4 SE 1019,8 2,0 0 0,0
19.02.2018 08:00:00 6,9 6,5 6 3 8 5 SE 1019,6 5 0 0,0
19.02.2018 07:00:00 7,0 6,6 6 3 8 4 ESE 1019,6 2,7 0 0,2
19.02.2018 06:00:00 7,0 6,6 5 3 8 5 ESE 1019,5 3,3 0 0,0
19.02.2018 05:00:00 6,9 6,3 6 3 8 4 ESE 1019,5 3,6 0 0,0
19.02.2018 04:00:00 6,9 6,3 5 3 8 4 ESE 1019,8 2,6 0 0,0
19.02.2018 03:00:00 6,9 6,3 5 3 12 7 ESE 1020,1 8 0 0,0
19.02.2018 02:00:00 7,0 6,3 7 4 13 7 SE 1020,2 10 0 0,0
19.02.2018 01:00:00 7,1 6,4 9 5 13 7 ESE 1020,5 8 0 0,0
19.02.2018 00:00:00 7,3 6,4 10 5 14 8 SE 1020,7 16 0 0,0
18.02.2018 23:00:00 7,8 6,9 9 5 15 8 ESE 1021,2 10 - 0,0
18.02.2018 22:00:00 8,0 6,9 11 6 16 9 SE 1021,3 25 0 0,0
18.02.2018 21:00:00 8,0 6,9 13 7 18 10 SE 1021,5 24 0 0,0
18.02.2018 20:00:00 8,1 7,0 12 6 19 10 ESE 1021,6 23 0 0,0
18.02.2018 19:00:00 8,3 7,2 10 5 16 9 ESE 1021,6 18 0 0,0
18.02.2018 18:00:00 8,8 7,4 12 7 16 9 ESE 1021,3 26 0 0,0
18.02.2018 17:00:00 9,2 7,6 9 5 14 7 ESE 1021,4 19 0 0,0
18.02.2018 16:00:00 9,5 7,9 9 5 18 10 ESE 1021,6 25 0 0,0
18.02.2018 15:00:00 9,4 8,0 11 6 16 9 ESE 1021,7 20 0 0,0
18.02.2018 14:00:00 8,8 7,7 14 8 20 11 SE 1022,0 19 0 0,0
18.02.2018 13:00:00 8,5 7,6 14 8 19 11 ESE 1022,5 25 0 0,0
18.02.2018 12:00:00 8,4 7,6 15 8 23 12 ESE 1022,8 20 0 0,0
18.02.2018 11:00:00 7,9 7,5 14 8 25 13 ESE 1022,9 16 0 0,0
18.02.2018 10:00:00 7,4 7,0 9 5 34 18 ESE 1023,1 7 0 0,7
18.02.2018 09:00:00 7,6 7,0 22 12 32 18 SSE 1022,9 2,1 0 2,2
18.02.2018 08:00:00 7,9 7,1 18 10 29 16 SSE 1023,5 3,4 0 1,4
18.02.2018 07:00:00 8,4 7,5 15 8 26 14 S 1024,1 8 0 1,0
18.02.2018 06:00:00 8,3 7,1 15 8 22 12 S 1024,5 17 0 0,4
18.02.2018 05:00:00 8,3 7,2 13 7 21 11 SSW 1025,2 14 0 0,4
18.02.2018 04:00:00 7,9 7,5 8 4 12 6 SSW 1025,8 18 0 0,0
18.02.2018 03:00:00 6,9 6,5 5 3 8 5 S 1026,6 13 0 0,0
18.02.2018 02:00:00 5,0 4,4 4 2 5 3 S 1027,1 10 0 0,0
18.02.2018 01:00:00 5,4 4,8 3 2 6 3 WSW 1027,3 2,1 0 0,0
18.02.2018 00:00:00 6,6 6,0 5 3 6 4 W 1027,4 8 0 0,0
17.02.2018 23:00:00 7,0 6,3 6 4 10 6 WNW 1027,4 14 0 0,0
17.02.2018 22:00:00 6,8 5,7 8 4 19 11 NW 1027,1 18 0 0,0
17.02.2018 21:00:00 7,4 5,9 13 7 28 15 WNW 1026,8 49 0 0,0
17.02.2018 20:00:00 7,9 5,5 21 11 32 17 WNW 1026,9 58 0 0,0
17.02.2018 19:00:00 8,0 4,9 22 12 30 16 WNW 1026,3 54 10 0,0
17.02.2018 18:00:00 8,8 4,8 21 11 29 16 WNW 1025,8 45 60 0,0
17.02.2018 17:00:00 9,6 5,4 23 12 29 15 WNW 1025,6 48 60 0,0
17.02.2018 16:00:00 10,1 6,1 20 11 30 16 WNW 1025,4 50 41 0,0
17.02.2018 15:00:00 9,2 5,9 21 11 27 15 WNW 1025,3 38 24 0,0
17.02.2018 14:00:00 10,2 6,0 18 10 31 17 NNW 1025,1 60 34 0,0
17.02.2018 13:00:00 8,9 5,8 21 12 34 18 NNW 1024,9 60 24 0,0
17.02.2018 12:00:00 8,9 6,0 27 15 44 24 NNW 1024,0 60 26 0,0
17.02.2018 11:00:00 8,5 6,1 35 19 46 25 NNW 1023,0 54 13 0,0
17.02.2018 10:00:00 8,6 6,9 32 17 49 27 NW 1021,1 20 35 0,0
17.02.2018 09:00:00 8,6 7,1 40 22 67 36 NW 1018,5 17 0 0,0
17.02.2018 08:00:00 9,3 6,0 37 20 62 34 WSW 1018,1 42 0 0,0
17.02.2018 07:00:00 8,6 5,9 18 10 29 15 WSW 1019,1 47 0 0,0

tt = Température de l'air
td = dewpoint
ff = Vitesse du vent
fx = gusts
dd = Direction du vent
ppp = reduced air pressure
vv = visibility
sd = Ensoleillement
rr = Quantités de précipitations

stations d'obs. à proximité